Temp
63 63 63 63 64 65 64 64 64 64 65 66 65 66 66 66 66 65 65 65 65 65 65 64 64 64 65 66 65 65 65 65 64 63 61 62 61 61 60 60 59 61 62 57 60 59 58 56 57 61 61 62 61 62 62 61 61 62 60 61 61 61 61
62 62 63 64 64 65 64 63 64 64 64 65 65 65 65 66 66 65 65 65 65 65 66 65 64 65 65 64 64 64 64 64 65 64 63 61 61 60 60 58 60 59 59 59 60 59 58 57 57 58 58 61 61 62 61 63 63 63 62 61 63 62 60
61 62 64 63 64 64 64 63 63 64 64 63 63 64 65 65 65 65 65 65 65 65 66 65 65 65 65 65 65 65 64 64 63 63 64 62 62 61 61 60 59 57 58 58 57 57 58 57 57 57 58 58 57 60 62 62 62 61 61 61 61 61 60
62 62 63 63 63 63 63 62 62 62 62 62 63 64 64 65 65 65 65 65 65 66 66 65 65 65 65 64 64 64 64 64 63 63 62 62 62 61 61 61 60 61 60 58 57 58 57 55 57 58 58 59 58 58 60 61 62 61 61 60 60 60 59
62 62 62 62 62 62 62 62 62 62 61 62 62 62 63 64 64 64 65 65 65 65 66 66 66 66 65 65 64 64 64 63 63 63 62 61 61 61 61 60 60 59 57 59 60 60 58 57 59 58 58 58 58 59 62 61 61 61 60 61 60 60 61
63 62 62 62 62 62 62 61 61 61 60 61 61 62 63 63 63 63 64 64 64 65 65 66 65 66 66 65 65 64 63 63 62 63 62 61 61 62 61 60 60 60 59 60 61 60 59 60 60 57 58 60 56 57 59 61 59 62 61 61 61 61 61
63 63 62 62 61 61 61 61 61 62 61 62 62 62 63 64 64 64 65 64 64 64 64 65 65 65 65 65 64 63 63 63 62 62 62 61 61 61 61 60 60 60 59 61 61 60 60 59 57 58 58 57 57 57 59 58 61 60 62 62 60 60 59
62 63 63 63 62 61 61 62 62 62 62 62 63 64 64 64 64 63 64 64 63 63 63 64 65 64 63 64 64 64 64 62 63 62 61 61 62 60 59 60 61 59 60 60 61 61 62 61 60 59 59 56 55 57 57 58 58 58 59 60 61 60 59
62 63 63 63 62 62 62 62 62 62 63 63 63 63 64 64 63 63 64 64 64 64 63 64 64 63 62 62 61 62 62 64 63 62 61 62 62 61 61 59 61 61 61 61 61 61 62 62 62 62 61 60 57 54 56 55 56 56 61 58 60 60 59
61 61 62 62 62 62 62 62 62 63 62 62 63 64 64 63 64 64 64 64 64 63 63 63 64 63 62 62 62 61 62 62 63 62 61 62 61 60 60 61 61 61 60 60 61 61 61 62 63 63 63 62 60 57 54 54 54 53 57 59 55 58 60
61 62 62 62 61 61 62 63 62 63 62 63 64 64 64 63 64 65 63 63 62 62 62 63 64 63 62 61 62 62 62 62 62 61 61 62 61 60 59 59 59 61 60 60 60 60 61 62 62 63 63 62 60 59 56 54 53 54 56 58 57 56 58
62 62 62 62 62 62 61 62 63 63 63 63 63 63 63 63 63 62 62 61 61 61 60 62 62 62 62 61 60 61 60 62 61 60 60 62 60 61 60 60 58 60 60 61 59 60 61 61 62 63 62 61 61 59 58 55 53 54 58 56 57 60 59
63 63 63 62 62 62 62 62 63 63 63 63 63 63 63 63 62 61 61 61 60 59 60 61 61 60 61 61 61 62 59 60 61 61 60 60 63 61 60 60 60 61 60 60 60 61 60 61 62 62 62 61 60 59 58 57 55 55 57 58 56 58 59
62 62 62 62 61 61 62 62 63 65 63 63 63 63 63 63 62 62 60 60 60 58 59 59 60 60 60 60 59 60 58 60 61 59 60 59 62 61 61 61 60 60 59 61 59 60 61 61 61 62 61 60 60 59 59 56 55 54 56 56 56 57 58
62 62 61 62 61 62 62 62 63 64 64 63 64 63 63 62 62 62 61 59 58 59 60 60 59 60 61 59 58 60 59 58 59 59 58 59 59 63 61 60 61 60 60 61 59 61 60 60 62 61 60 61 60 59 60 59 54 55 54 54 54 56 56
62 61 62 62 62 63 64 63 65 64 64 62 63 63 62 62 62 61 60 59 59 58 60 60 59 60 59 59 58 59 58 58 58 58 58 59 60 60 60 60 60 60 61 61 58 58 59 61 61 63 61 60 61 60 60 61 57 54 54 52 54 55 55
61 61 62 63 64 65 66 65 65 65 64 63 63 63 63 62 62 61 60 59 59 59 59 59 59 59 59 58 57 58 57 57 59 59 60 59 59 60 60 60 60 60 60 59 58 59 58 58 57 61 60 59 60 60 60 59 62 58 53 54 53 57 56
61 61 61 62 63 65 66 66 64 64 63 63 63 62 62 62 62 61 61 60 59 59 59 59 60 58 58 56 56 57 56 56 57 59 60 60 62 59 59 60 59 58 57 59 56 56 56 57 58 57 59 59 60 60 60 59 59 59 57 56 54 54 54
60 61 61 62 62 64 65 65 65 63 64 64 62 62 61 61 62 62 62 62 60 59 58 59 60 59 58 56 56 56 56 57 59 60 59 60 60 59 60 58 58 57 58 58 56 56 56 57 58 56 57 58 60 59 58 56 57 58 58 57 55 53 52
58 60 61 62 63 63 64 65 64 63 64 65 63 61 62 62 61 62 63 62 61 59 58 59 60 60 58 56 56 57 57 57 59 59 58 58 58 58 58 58 57 57 57 57 57 57 58 57 58 56 56 56 57 58 58 58 58 57 56 55 53 54 55
58 59 60 62 64 64 64 64 64 62 63 64 62 62 63 63 60 61 59 58 56 57 58 57 55 56 57 57 56 56 58 59 58 58 57 58 58 58 58 58 58 58 57 56 56 56 56 56 57 57 55 56 56 57 56 55 55 55 54 53 55 53 52
58 59 59 60 61 62 63 63 62 62 63 63 63 62 61 60 58 58 57 56 54 53 52 50 50 50 56 58 57 58 59 60 59 58 58 58 58 58 59 58 58 58 60 58 55 55 55 57 58 57 55 55 55 55 54 54 53 52 52 53 53 52 53
59 58 59 59 59 60 61 61 62 62 63 62 61 60 59 59 58 57 55 53 52 51 49 49 47 46 53 59 58 59 59 59 59 59 59 58 57 58 58 59 61 61 59 57 54 49 48 50 53 55 54 55 54 54 53 53 53 52 53 53 53 51 51
58 58 58 58 58 58 59 61 61 61 60 60 59 59 59 57 56 55 53 52 50 48 47 47 43 43 49 53 59 59 59 58 58 59 58 58 57 57 56 57 57 60 59 57 52 46 46 46 46 47 48 51 54 55 52 52 54 52 52 52 50 49 49
57 57 58 58 58 57 59 60 60 59 59 59 59 58 57 55 54 53 52 51 49 48 46 43 40 43 48 51 55 60 59 59 58 58 58 57 57 57 57 57 57 57 58 58 58 55 51 46 45 45 46 47 45 43 46 54 53 51 51 51 51 51 49
56 56 56 57 57 57 58 59 59 59 59 59 58 56 55 54 52 52 51 49 48 48 46 42 41 43 45 47 50 56 59 59 59 58 58 58 57 56 55 56 56 57 59 63 59 58 57 54 47 46 47 48 48 47 42 41 43 52 52 52 53 50 50
55 55 55 56 57 57 57 56 57 58 58 58 57 55 54 52 52 50 50 49 48 47 46 43 41 44 46 46 48 53 58 58 58 58 58 57 57 57 56 55 55 55 55 56 55 56 57 56 55 55 54 54 54 53 49 44 42 42 47 52 52 52 51
55 55 55 55 56 56 56 56 56 56 56 56 55 53 52 51 51 50 50 50 48 45 44 41 40 43 46 47 49 52 58 59 58 57 57 56 56 56 57 57 56 55 54 51 47 46 54 55 55 55 53 53 52 54 54 53 51 50 49 51 51 53 52
54 55 55 55 55 55 55 56 56 56 56 55 54 53 52 51 50 49 49 49 48 46 45 40 41 42 45 46 49 57 59 58 58 57 57 57 56 56 56 56 55 53 51 49 44 39 43 49 55 55 54 54 54 53 51 47 42 41 44 48 51 52 53
54 54 54 55 55 54 55 55 55 55 54 53 51 50 49 50 50 49 49 48 47 46 46 42 41 42 43 48 52 58 57 57 56 56 54 53 52 52 53 53 52 51 49 48 41 38 40 46 54 54 55 54 53 53 52 51 45 42 41 41 41 42 42
53 53 54 53 54 54 54 54 54 54 53 51 49 49 48 47 47 47 47 47 47 46 45 43 41 42 43 45 51 56 56 56 55 53 51 50 50 49 51 52 51 48 47 45 38 38 40 49 53 53 53 52 53 52 50 49 51 51 45 44 43 41 41
52 52 52 53 54 54 54 54 54 54 52 51 49 48 47 46 46 46 46 46 49 47 46 45 42 41 42 44 49 52 54 54 53 51 50 48 48 48 48 47 45 45 45 40 36 38 39 47 51 51 51 51 49 49 47 47 48 49 49 50 49 49 48
51 51 52 53 53 53 53 54 53 52 51 50 49 48 47 46 46 45 46 47 46 46 45 45 43 41 42 43 45 51 51 52 51 51 51 50 49 47 46 46 44 38 38 37 36 36 37 40 50 50 49 48 47 48 49 48 49 48 48 49 50 49 49
52 52 51 51 52 52 52 52 52 51 49 49 48 46 46 47 47 46 46 46 46 46 46 45 43 40 41 42 43 46 50 50 51 50 50 49 49 47 47 45 44 40 38 38 37 36 37 38 42 49 48 49 49 46 42 46 48 46 48 48 49 51 51
51 51 51 51 50 50 51 52 51 50 49 47 47 46 45 45 45 45 46 46 45 45 45 45 44 41 40 41 40 42 47 47 48 49 48 48 48 47 47 45 44 41 37 38 37 36 37 38 39 45 41 37 36 37 41 43 45 46 47 47 47 49 50
49 49 50 50 49 49 50 51 51 50 49 48 47 46 45 45 44 43 44 45 45 45 44 44 41 42 40 40 40 39 40 43 43 49 48 46 45 43 43 42 43 41 37 37 36 36 37 39 41 38 35 36 37 38 41 42 43 45 45 45 46 46 46
48 46 47 49 49 49 49 48 48 49 49 48 47 47 46 46 44 43 42 41 42 43 44 44 41 40 40 39 39 39 39 39 40 43 43 41 40 40 39 39 39 37 37 38 37 36 35 36 35 33 33 34 39 40 42 44 43 44 42 42 43 41 40
MSLP
1015.82 1015.86 1015.98 1016.10 1016.14 1016.30 1016.50 1016.58 1016.54 1016.50 1016.42 1016.46 1016.70 1016.90 1017.06 1017.26 1017.46 1017.66 1017.82 1018.02 1018.22 1018.34 1018.34 1018.46 1018.58 1018.70 1018.94 1019.06 1019.18 1019.34 1019.50 1019.54 1019.86 1020.22 1020.62 1020.70 1020.98 1020.86 1020.62 1020.66 1020.74 1020.98 1021.14 1021.18 1021.50 1022.02 1022.54 1023.34 1023.50 1023.18 1023.10 1023.10 1023.10 1023.06 1023.06 1023.22 1023.26 1023.26 1023.30 1023.22 1023.22 1023.26 1023.26
1016.06 1016.10 1015.98 1016.06 1016.22 1016.22 1016.54 1016.58 1016.50 1016.50 1016.70 1016.82 1017.14 1017.10 1017.14 1017.26 1017.46 1017.62 1017.78 1017.94 1018.10 1018.26 1018.22 1018.34 1018.46 1018.66 1018.82 1019.02 1019.22 1019.34 1019.46 1019.62 1019.66 1019.74 1020.10 1020.50 1020.58 1020.66 1020.82 1020.98 1020.98 1021.30 1021.42 1021.38 1021.58 1021.74 1022.30 1023.10 1023.38 1023.38 1023.46 1023.26 1023.18 1023.14 1023.14 1023.14 1023.22 1023.30 1023.26 1023.18 1023.18 1023.26 1023.34
1016.58 1016.46 1016.10 1016.14 1016.18 1016.22 1016.46 1016.70 1016.82 1016.74 1016.78 1017.06 1017.46 1017.42 1017.18 1017.30 1017.46 1017.54 1017.66 1017.86 1018.02 1018.10 1018.14 1018.26 1018.42 1018.62 1018.66 1018.82 1018.90 1018.98 1019.14 1019.38 1019.54 1019.66 1019.86 1020.14 1020.26 1020.42 1020.54 1020.78 1021.14 1021.46 1021.66 1021.94 1021.94 1022.02 1022.14 1022.22 1022.78 1023.18 1023.30 1023.42 1023.62 1023.42 1023.22 1023.22 1023.26 1023.26 1023.22 1023.14 1023.22 1023.30 1023.34
1016.54 1016.62 1016.38 1016.10 1016.10 1016.18 1016.38 1016.62 1016.90 1016.86 1016.86 1017.10 1017.42 1017.42 1017.22 1017.30 1017.42 1017.50 1017.66 1017.78 1017.90 1017.98 1018.06 1018.22 1018.38 1018.50 1018.58 1018.62 1018.78 1018.86 1019.02 1019.22 1019.50 1019.66 1019.86 1020.02 1020.18 1020.38 1020.58 1020.66 1020.78 1020.86 1020.98 1021.42 1021.74 1021.90 1021.98 1022.42 1022.86 1023.18 1023.26 1023.26 1023.38 1023.62 1023.34 1023.18 1023.26 1023.30 1023.30 1023.26 1023.34 1023.38 1023.42
1015.62 1016.42 1016.54 1016.18 1015.98 1016.10 1016.30 1016.54 1016.74 1016.82 1016.90 1016.98 1017.14 1017.18 1017.30 1017.34 1017.46 1017.54 1017.62 1017.70 1017.86 1017.98 1018.06 1018.10 1018.22 1018.30 1018.46 1018.62 1018.78 1018.90 1019.06 1019.18 1019.30 1019.54 1019.74 1020.02 1020.22 1020.34 1020.42 1020.54 1020.62 1020.70 1020.82 1020.90 1021.26 1021.46 1021.74 1022.10 1022.30 1022.98 1023.22 1023.26 1023.42 1023.42 1023.30 1023.38 1023.34 1023.42 1023.42 1023.46 1023.46 1023.50 1023.54
1015.34 1015.46 1015.94 1016.22 1015.98 1016.02 1016.22 1016.46 1016.66 1016.82 1016.94 1017.10 1017.10 1017.22 1017.26 1017.26 1017.38 1017.54 1017.70 1017.78 1017.82 1017.86 1017.94 1018.02 1018.10 1018.18 1018.38 1018.58 1018.78 1018.98 1019.10 1019.26 1019.34 1019.46 1019.74 1019.90 1020.06 1020.22 1020.34 1020.42 1020.54 1020.66 1020.58 1020.62 1020.90 1021.26 1021.58 1021.82 1022.22 1022.98 1023.18 1023.02 1023.42 1023.58 1023.54 1023.46 1023.74 1023.58 1023.54 1023.62 1023.58 1023.54 1023.58
1014.94 1015.10 1015.30 1015.74 1015.94 1016.02 1016.10 1016.30 1016.46 1016.54 1016.74 1016.78 1016.90 1016.98 1016.90 1017.06 1017.22 1017.30 1017.42 1017.54 1017.54 1017.66 1017.78 1017.86 1018.02 1018.22 1018.34 1018.58 1018.78 1018.94 1019.10 1019.18 1019.30 1019.46 1019.58 1019.78 1019.90 1019.98 1020.18 1020.42 1020.58 1020.58 1020.50 1020.58 1020.74 1021.06 1021.46 1021.94 1022.46 1022.58 1022.98 1023.10 1023.22 1023.58 1023.50 1023.54 1023.58 1023.82 1023.74 1023.62 1023.66 1023.70 1023.74
1014.50 1014.98 1015.18 1015.38 1015.74 1016.06 1016.22 1016.34 1016.38 1016.46 1016.50 1016.54 1016.58 1016.54 1016.70 1016.94 1017.10 1017.22 1017.30 1017.42 1017.54 1017.62 1017.78 1017.90 1018.02 1018.18 1018.34 1018.54 1018.70 1018.82 1018.98 1019.14 1019.26 1019.38 1019.62 1019.78 1019.98 1020.18 1020.30 1020.26 1020.42 1020.54 1020.50 1020.62 1020.70 1020.86 1021.02 1021.26 1021.62 1021.98 1022.26 1023.18 1023.62 1023.62 1023.74 1023.62 1023.74 1023.66 1023.74 1023.78 1023.74 1023.86 1023.90
1014.70 1015.02 1015.30 1015.54 1015.78 1015.98 1016.22 1016.34 1016.42 1016.42 1016.30 1016.38 1016.42 1016.50 1016.62 1016.78 1017.02 1017.14 1017.22 1017.34 1017.46 1017.58 1017.78 1017.90 1018.02 1018.22 1018.34 1018.54 1018.78 1018.86 1019.02 1019.06 1019.22 1019.42 1019.62 1019.74 1019.86 1020.02 1020.18 1020.30 1020.38 1020.38 1020.42 1020.50 1020.62 1020.74 1020.82 1020.94 1021.18 1021.46 1021.74 1022.06 1022.74 1023.82 1023.74 1024.06 1023.98 1023.82 1023.54 1023.94 1023.94 1023.90 1023.98
1014.94 1015.10 1015.22 1015.54 1015.98 1016.22 1016.30 1016.34 1016.38 1016.38 1016.42 1016.54 1016.62 1016.58 1016.74 1016.86 1017.02 1017.14 1017.26 1017.38 1017.50 1017.66 1017.78 1017.86 1018.02 1018.18 1018.30 1018.50 1018.70 1018.90 1019.02 1019.14 1019.22 1019.42 1019.62 1019.74 1019.82 1019.94 1020.14 1020.14 1020.14 1020.26 1020.34 1020.38 1020.58 1020.74 1020.82 1020.94 1021.02 1021.18 1021.30 1021.58 1021.82 1022.62 1023.70 1024.02 1023.98 1023.90 1023.82 1023.66 1024.14 1024.06 1024.02
1014.90 1014.98 1014.94 1015.06 1015.86 1016.66 1016.62 1016.42 1016.42 1016.54 1016.66 1016.70 1016.74 1016.86 1016.90 1017.10 1017.14 1017.14 1017.26 1017.34 1017.46 1017.62 1017.74 1017.86 1017.98 1018.18 1018.34 1018.54 1018.66 1018.78 1018.90 1019.06 1019.26 1019.42 1019.58 1019.66 1019.82 1019.94 1020.06 1020.18 1020.18 1020.22 1020.30 1020.42 1020.54 1020.66 1020.78 1020.82 1021.02 1021.14 1021.26 1021.38 1021.46 1021.94 1022.58 1023.38 1023.78 1023.54 1023.70 1023.62 1023.62 1024.02 1024.10
1014.78 1015.02 1015.10 1015.06 1015.22 1015.62 1016.18 1016.42 1016.26 1016.38 1016.54 1016.62 1016.74 1016.90 1017.02 1017.10 1017.18 1017.26 1017.26 1017.38 1017.46 1017.62 1017.78 1017.90 1018.06 1018.22 1018.30 1018.58 1018.70 1018.82 1018.94 1019.02 1019.26 1019.42 1019.58 1019.62 1019.82 1019.90 1020.06 1020.14 1020.18 1020.18 1020.26 1020.42 1020.58 1020.66 1020.66 1020.78 1020.90 1021.06 1021.22 1021.34 1021.54 1021.78 1022.14 1022.78 1023.66 1023.42 1023.22 1023.66 1023.50 1023.54 1023.90
1014.54 1014.82 1015.02 1015.18 1015.42 1015.78 1016.02 1016.90 1016.38 1016.10 1016.18 1016.34 1016.50 1016.70 1016.86 1016.98 1017.10 1017.22 1017.26 1017.38 1017.50 1017.62 1017.82 1017.98 1018.10 1018.22 1018.38 1018.50 1018.66 1018.78 1018.98 1019.10 1019.30 1019.42 1019.58 1019.70 1019.82 1019.94 1020.06 1020.18 1020.22 1020.18 1020.18 1020.30 1020.50 1020.58 1020.62 1020.70 1020.82 1021.06 1021.18 1021.34 1021.58 1021.82 1022.06 1022.46 1022.90 1023.26 1023.02 1023.22 1023.38 1023.62 1023.78
1014.50 1014.66 1014.94 1015.22 1015.42 1015.58 1015.78 1016.74 1016.70 1015.82 1015.98 1016.18 1016.34 1016.58 1016.74 1016.90 1017.02 1017.14 1017.30 1017.42 1017.54 1017.70 1017.86 1018.06 1018.18 1018.26 1018.38 1018.54 1018.66 1018.74 1019.02 1019.14 1019.30 1019.46 1019.58 1019.82 1019.86 1019.98 1020.06 1020.14 1020.18 1020.10 1020.10 1020.22 1020.30 1020.42 1020.62 1020.70 1020.90 1020.98 1021.14 1021.38 1021.70 1021.94 1022.18 1022.58 1023.02 1023.38 1023.30 1023.26 1023.42 1023.70 1023.94
1014.38 1014.62 1014.82 1014.98 1015.30 1015.42 1015.26 1016.14 1016.42 1015.78 1015.94 1016.14 1016.22 1016.50 1016.74 1016.94 1017.06 1017.22 1017.38 1017.50 1017.62 1017.74 1017.90 1018.02 1018.18 1018.26 1018.42 1018.62 1018.78 1018.90 1019.10 1019.22 1019.34 1019.46 1019.66 1019.82 1019.94 1019.94 1019.98 1020.06 1020.10 1020.06 1020.10 1020.10 1020.26 1020.42 1020.46 1020.66 1020.82 1021.06 1021.26 1021.42 1021.78 1021.98 1021.98 1022.26 1022.86 1023.06 1023.42 1023.50 1023.66 1023.86 1024.06
1014.34 1014.58 1014.70 1014.82 1014.98 1015.14 1015.14 1015.90 1015.78 1015.70 1015.94 1016.26 1016.30 1016.46 1016.78 1016.94 1017.10 1017.26 1017.42 1017.50 1017.66 1017.78 1017.86 1018.06 1018.22 1018.30 1018.46 1018.62 1018.82 1018.86 1018.90 1019.10 1019.38 1019.50 1019.66 1019.70 1019.86 1019.94 1020.02 1020.06 1020.06 1020.02 1020.10 1020.38 1020.62 1020.54 1020.38 1020.42 1020.50 1020.70 1021.02 1021.30 1021.54 1021.78 1021.94 1021.86 1022.34 1023.06 1023.30 1023.62 1023.66 1023.90 1024.10
1014.22 1014.38 1014.58 1014.58 1014.70 1014.94 1015.02 1015.26 1015.34 1015.62 1015.94 1016.18 1016.46 1016.62 1016.70 1016.90 1017.06 1017.22 1017.34 1017.50 1017.66 1017.70 1017.86 1018.10 1018.22 1018.22 1018.38 1018.58 1018.70 1018.78 1018.86 1019.06 1019.22 1019.34 1019.46 1019.66 1019.82 1019.94 1019.98 1020.06 1020.06 1020.06 1020.14 1020.34 1020.46 1020.38 1020.38 1020.30 1020.38 1020.38 1020.70 1021.18 1021.30 1021.54 1021.70 1021.82 1021.74 1022.22 1023.10 1023.50 1023.74 1023.62 1023.86
1014.06 1014.26 1014.42 1014.50 1014.50 1014.74 1014.82 1015.02 1015.38 1015.66 1015.98 1016.22 1016.38 1016.62 1016.78 1016.86 1017.06 1017.22 1017.38 1017.50 1017.62 1017.74 1017.94 1017.98 1018.10 1018.30 1018.42 1018.50 1018.58 1018.78 1018.94 1019.10 1019.18 1019.30 1019.42 1019.58 1019.74 1019.82 1019.94 1019.94 1020.06 1020.14 1020.22 1020.46 1020.46 1020.46 1020.54 1020.46 1020.50 1020.66 1020.66 1020.86 1020.98 1021.18 1021.50 1021.66 1021.86 1022.02 1022.54 1022.98 1023.42 1023.66 1023.78
1014.14 1014.18 1014.30 1014.38 1014.54 1014.62 1014.66 1015.02 1015.38 1015.70 1015.82 1016.18 1016.42 1016.62 1016.90 1017.06 1017.18 1017.30 1017.42 1017.50 1017.58 1017.78 1017.94 1017.98 1018.14 1018.30 1018.38 1018.46 1018.66 1018.82 1019.02 1019.02 1019.10 1019.30 1019.54 1019.62 1019.70 1019.78 1019.86 1020.06 1020.18 1020.22 1020.30 1020.42 1020.66 1020.78 1020.66 1020.50 1020.54 1020.66 1020.86 1020.94 1020.94 1021.14 1021.38 1021.70 1021.86 1022.06 1022.18 1022.50 1022.98 1023.58 1023.82
1014.66 1014.78 1014.42 1014.50 1014.66 1015.06 1015.02 1014.94 1015.34 1015.74 1015.86 1016.10 1016.46 1016.78 1016.94 1017.14 1017.22 1017.30 1017.46 1017.58 1017.66 1017.82 1018.02 1018.06 1018.18 1018.38 1018.42 1018.62 1018.74 1018.90 1018.94 1019.14 1019.26 1019.46 1019.70 1019.86 1020.02 1020.14 1020.22 1020.34 1020.50 1020.50 1020.54 1020.74 1020.74 1020.62 1020.66 1020.74 1020.70 1020.86 1020.90 1021.02 1021.14 1021.10 1021.34 1021.58 1021.86 1022.14 1022.38 1022.70 1023.06 1023.06 1023.34
1015.22 1015.14 1015.30 1015.14 1014.86 1014.86 1014.98 1015.10 1015.46 1015.74 1015.94 1016.22 1016.54 1016.78 1016.94 1017.10 1017.30 1017.46 1017.74 1017.94 1018.14 1018.18 1018.22 1018.42 1018.62 1018.70 1018.66 1018.70 1018.90 1019.02 1019.22 1019.38 1019.62 1019.82 1020.06 1020.18 1020.22 1020.34 1020.46 1020.54 1020.62 1020.74 1020.82 1020.94 1020.98 1021.18 1021.22 1021.22 1021.14 1021.10 1021.30 1021.14 1021.18 1021.26 1021.46 1021.62 1021.86 1022.18 1022.50 1022.78 1022.82 1023.02 1023.26
1015.46 1015.78 1015.98 1015.98 1015.66 1015.46 1015.22 1015.34 1015.62 1015.86 1016.02 1016.30 1016.50 1016.70 1017.02 1017.22 1017.54 1017.90 1018.22 1018.38 1018.58 1018.78 1018.74 1019.02 1019.22 1019.02 1018.86 1018.98 1019.02 1019.14 1019.42 1019.62 1019.78 1020.14 1020.34 1020.46 1020.54 1020.58 1020.62 1020.70 1020.74 1020.82 1020.82 1020.94 1020.98 1021.02 1021.14 1021.14 1021.14 1021.34 1021.70 1021.74 1021.66 1021.66 1021.70 1021.82 1021.98 1022.22 1022.58 1022.66 1022.78 1022.90 1023.14
1015.38 1015.62 1015.86 1015.82 1015.94 1016.10 1015.82 1015.62 1015.78 1015.94 1016.14 1016.34 1016.58 1016.90 1017.22 1017.50 1017.82 1018.22 1018.62 1019.06 1019.30 1019.46 1019.70 1020.02 1019.90 1019.38 1019.06 1019.06 1019.18 1019.46 1019.70 1019.90 1020.02 1020.14 1020.38 1020.62 1020.82 1020.86 1020.86 1020.90 1020.94 1020.74 1020.74 1020.86 1021.02 1021.14 1021.22 1021.26 1021.42 1021.46 1021.54 1021.58 1021.82 1022.06 1022.14 1021.98 1022.10 1022.34 1022.54 1022.70 1022.62 1022.74 1023.06
1015.30 1015.58 1015.90 1015.98 1016.06 1016.46 1016.18 1015.86 1015.98 1016.14 1016.38 1016.62 1016.90 1017.18 1017.46 1017.98 1018.46 1018.86 1019.14 1019.46 1019.82 1020.18 1020.42 1020.50 1020.18 1019.50 1019.26 1018.98 1019.14 1019.54 1019.86 1020.18 1020.22 1020.30 1020.46 1020.62 1020.82 1020.86 1020.94 1021.06 1021.06 1021.02 1020.98 1021.02 1021.14 1021.30 1021.42 1021.46 1021.38 1021.38 1021.50 1021.62 1021.74 1021.82 1022.10 1022.30 1022.38 1022.38 1022.42 1022.58 1022.90 1022.90 1022.94
1015.38 1015.70 1015.78 1016.18 1016.30 1016.50 1016.18 1016.10 1016.26 1016.46 1016.70 1017.02 1017.34 1017.58 1018.06 1018.62 1019.06 1019.34 1019.62 1019.90 1020.22 1020.46 1020.66 1020.82 1020.50 1019.98 1019.30 1018.98 1019.18 1019.54 1019.90 1020.26 1020.50 1020.58 1020.66 1020.78 1020.86 1020.78 1020.86 1021.06 1021.18 1021.18 1021.10 1021.10 1021.06 1021.26 1021.46 1021.46 1021.46 1021.54 1021.54 1021.54 1021.62 1021.86 1021.98 1022.10 1022.38 1022.58 1022.66 1023.02 1023.06 1023.02 1023.26
1015.70 1015.94 1016.02 1015.98 1016.18 1016.66 1016.42 1016.42 1016.58 1016.74 1017.06 1017.38 1017.70 1018.10 1018.66 1019.10 1019.58 1019.82 1019.86 1019.94 1020.30 1020.58 1020.62 1020.78 1020.54 1020.10 1019.58 1019.42 1019.38 1019.58 1020.02 1020.26 1020.46 1020.70 1020.82 1020.94 1021.10 1021.14 1021.18 1021.22 1021.38 1021.66 1021.70 1021.70 1021.46 1021.46 1021.46 1021.54 1021.62 1021.66 1021.66 1021.62 1021.66 1021.70 1021.78 1022.02 1022.22 1022.34 1022.50 1022.66 1023.14 1023.26 1022.98
1016.30 1016.58 1016.50 1016.38 1016.42 1016.86 1016.74 1016.94 1016.94 1017.02 1017.38 1017.70 1018.10 1018.70 1019.14 1019.50 1019.86 1020.02 1020.14 1020.26 1020.62 1020.82 1020.70 1020.82 1020.54 1020.22 1019.94 1019.74 1019.74 1019.90 1020.30 1020.62 1020.86 1021.18 1021.46 1021.38 1021.10 1021.34 1021.58 1021.26 1021.50 1021.78 1021.98 1022.06 1022.10 1021.94 1021.78 1021.74 1021.70 1021.66 1021.62 1021.66 1021.74 1021.82 1021.86 1021.82 1021.90 1022.18 1022.42 1022.42 1022.50 1022.58 1022.50
1016.46 1016.78 1016.98 1016.94 1016.90 1017.14 1017.26 1017.34 1017.58 1017.50 1017.62 1018.10 1018.54 1019.10 1019.54 1019.90 1020.22 1020.34 1020.46 1020.54 1020.66 1020.90 1021.26 1021.22 1020.74 1020.46 1020.22 1019.98 1019.98 1019.98 1020.38 1020.70 1021.30 1021.38 1021.62 1021.94 1022.26 1021.94 1021.66 1021.62 1021.74 1022.10 1022.34 1022.50 1022.74 1022.62 1022.06 1021.86 1021.78 1021.74 1021.78 1021.74 1021.78 1021.94 1021.90 1021.86 1021.86 1022.06 1022.22 1022.38 1022.34 1022.30 1022.26
1016.98 1017.10 1017.10 1017.06 1017.26 1017.38 1017.66 1017.62 1017.94 1018.18 1018.10 1018.66 1019.10 1019.50 1020.02 1020.26 1020.58 1020.74 1020.90 1020.86 1020.82 1021.02 1021.42 1021.38 1021.02 1020.70 1020.62 1020.34 1020.14 1020.26 1020.58 1020.94 1021.38 1021.50 1021.90 1022.02 1021.98 1022.06 1022.02 1022.06 1022.26 1022.54 1022.82 1022.90 1023.06 1022.86 1022.50 1022.14 1021.90 1021.90 1021.86 1021.86 1021.90 1021.94 1021.98 1022.38 1022.58 1022.58 1022.54 1022.46 1022.42 1022.34 1022.30
1017.70 1017.50 1017.38 1017.18 1017.34 1017.82 1017.90 1018.26 1018.18 1018.58 1018.66 1019.14 1019.70 1020.10 1020.50 1020.78 1021.02 1021.18 1021.18 1021.14 1021.14 1021.54 1021.62 1021.70 1021.34 1020.90 1020.62 1020.38 1020.06 1020.54 1021.10 1021.42 1021.78 1022.06 1022.34 1022.58 1022.50 1022.50 1022.54 1022.62 1022.74 1022.86 1022.74 1022.94 1023.22 1022.90 1022.62 1022.30 1022.06 1022.06 1022.10 1022.06 1022.18 1022.22 1022.38 1022.54 1022.62 1022.66 1022.66 1022.66 1022.58 1022.50 1022.42
1018.14 1018.02 1017.90 1018.10 1017.94 1018.10 1018.46 1018.66 1018.74 1019.02 1019.46 1019.78 1020.18 1020.70 1020.94 1021.22 1021.50 1021.74 1021.82 1021.98 1022.06 1022.02 1022.22 1022.18 1021.74 1021.22 1021.02 1020.90 1020.86 1021.02 1021.26 1021.50 1021.98 1022.46 1022.94 1023.02 1022.98 1023.06 1023.14 1023.06 1023.14 1023.22 1023.14 1023.26 1023.34 1023.02 1022.82 1022.50 1022.30 1022.34 1022.42 1022.54 1022.46 1022.46 1022.82 1023.30 1023.06 1022.74 1022.74 1022.70 1022.66 1022.62 1022.54
1018.62 1018.58 1018.50 1018.62 1018.50 1018.46 1018.58 1018.94 1019.34 1019.62 1019.86 1020.18 1020.54 1020.94 1021.14 1021.42 1021.82 1021.74 1021.66 1022.02 1022.34 1022.54 1022.70 1022.58 1022.26 1021.82 1021.58 1021.58 1021.46 1021.38 1021.38 1021.74 1022.30 1022.98 1023.14 1023.22 1023.30 1023.42 1023.54 1023.66 1023.66 1023.58 1023.54 1023.58 1023.50 1023.26 1023.02 1022.86 1022.66 1022.78 1022.70 1022.58 1022.74 1022.90 1023.46 1023.70 1023.46 1023.02 1022.74 1022.54 1022.38 1022.46 1022.30
1019.26 1019.14 1019.06 1018.90 1018.94 1019.02 1019.14 1019.26 1019.62 1019.90 1020.22 1020.26 1020.62 1021.10 1021.38 1021.66 1021.98 1022.46 1022.78 1023.14 1023.42 1023.26 1023.06 1023.02 1022.82 1022.38 1022.22 1022.10 1021.98 1021.82 1021.82 1021.94 1022.54 1022.90 1023.02 1023.10 1023.30 1023.58 1023.74 1023.78 1023.90 1023.94 1023.90 1023.86 1023.74 1023.66 1023.62 1023.50 1023.34 1023.38 1023.22 1022.90 1022.78 1022.90 1023.50 1023.50 1023.54 1023.58 1023.26 1023.02 1022.74 1022.70 1022.62
1019.66 1019.66 1019.58 1019.46 1019.34 1019.50 1019.62 1019.82 1020.06 1020.30 1020.66 1020.94 1021.34 1021.74 1022.02 1022.38 1022.66 1023.18 1023.58 1023.82 1023.66 1023.46 1023.34 1023.26 1023.26 1022.98 1022.78 1022.62 1022.46 1022.34 1022.46 1022.62 1022.78 1022.98 1023.18 1023.38 1023.54 1023.62 1023.70 1023.82 1023.94 1024.02 1024.02 1024.02 1023.94 1023.86 1023.82 1023.74 1023.66 1023.66 1023.66 1023.54 1023.74 1023.98 1024.02 1023.78 1023.54 1023.54 1023.38 1023.14 1022.86 1022.66 1022.50
1020.18 1020.22 1020.22 1020.06 1019.94 1020.10 1020.22 1020.30 1020.50 1020.74 1021.06 1021.42 1021.86 1022.38 1022.66 1022.90 1023.22 1023.74 1023.98 1024.06 1024.02 1024.02 1023.90 1023.70 1023.62 1023.62 1023.50 1023.34 1023.30 1023.14 1023.06 1023.26 1023.18 1023.14 1023.30 1023.50 1023.66 1023.78 1023.90 1024.02 1023.98 1024.06 1024.14 1024.10 1024.06 1023.94 1023.90 1023.90 1023.90 1023.78 1023.94 1024.18 1024.26 1024.10 1023.78 1023.78 1023.70 1023.50 1023.30 1023.14 1022.98 1022.86 1022.78
1021.02 1020.94 1020.86 1020.78 1020.70 1020.86 1020.86 1020.86 1021.06 1021.26 1021.50 1021.86 1022.18 1022.62 1023.02 1023.30 1023.54 1023.94 1024.22 1024.34 1024.34 1024.34 1024.30 1024.26 1024.26 1024.18 1024.14 1023.98 1023.86 1023.74 1023.62 1023.54 1023.46 1023.34 1023.54 1023.90 1024.06 1024.22 1024.30 1024.30 1024.26 1024.22 1024.22 1024.26 1024.22 1024.22 1024.18 1024.14 1024.02 1024.06 1024.14 1024.02 1023.90 1023.78 1023.70 1023.58 1023.50 1023.38 1023.34 1023.34 1023.30 1023.34 1023.42
1021.66 1021.74 1021.66 1021.46 1021.34 1021.42 1021.50 1021.54 1021.62 1021.70 1021.78 1022.10 1022.62 1023.02 1023.38 1023.58 1023.74 1024.02 1024.46 1024.74 1024.70 1024.62 1024.58 1024.50 1024.54 1024.46 1024.38 1024.26 1024.14 1024.06 1023.98 1023.98 1023.94 1024.10 1024.26 1024.38 1024.50 1024.54 1024.38 1024.38 1024.38 1024.26 1024.22 1024.26 1024.26 1024.18 1024.22 1024.14 1024.06 1024.06 1024.06 1024.02 1023.90 1023.78 1023.62 1023.54 1023.54 1023.62 1023.54 1023.54 1023.62 1023.66 1023.66
Wind_Speed
6 5 4 4 4 4 4 4 4 4 4 5 6 6 6 5 5 5 5 5 5 5 4 5 6 5 5 4 6 6 6 6 6 7 7 7 9 4 0 1 2 5 7 3 4 4 6 6 3 2 2 0 2 2 2 2 1 0 1 2 3 2 2
2 1 3 4 4 4 4 3 4 3 3 4 3 4 5 6 5 6 5 5 5 5 5 5 4 5 6 6 6 6 7 7 7 6 7 7 5 5 3 1 3 4 3 2 4 1 3 5 3 3 3 2 2 0 1 3 3 3 2 3 3 2 2
3 1 3 4 4 4 5 5 3 3 4 5 5 3 5 5 5 5 5 6 5 5 5 5 4 5 6 6 7 6 6 6 4 6 7 6 5 4 4 5 3 3 3 3 1 3 3 1 5 6 4 4 4 2 0 2 2 2 2 2 3 3 3
4 4 4 5 5 5 5 5 5 3 3 5 6 5 4 4 5 5 5 5 5 4 4 5 6 6 6 6 5 6 6 7 6 5 5 5 5 5 4 5 7 9 8 6 7 5 4 3 5 4 4 3 3 4 2 1 2 2 2 2 3 2 2
8 4 4 6 7 6 6 6 5 4 3 4 3 4 4 4 5 5 4 4 5 5 5 5 6 6 5 5 5 5 5 4 5 6 5 5 5 5 4 5 5 3 2 4 6 7 7 6 8 7 5 3 3 1 2 3 2 3 2 2 2 2 2
8 9 7 5 5 6 6 6 6 6 5 4 4 5 5 5 5 5 5 5 5 5 5 5 5 6 6 5 5 5 5 5 5 5 6 6 7 7 6 4 4 4 4 4 6 6 4 6 7 8 3 3 3 3 2 3 1 1 1 2 3 2 3
9 10 8 7 6 5 6 7 7 7 7 7 6 6 6 5 5 5 5 5 5 4 5 5 5 5 6 6 6 6 5 5 4 4 5 5 5 4 4 5 4 5 3 5 6 6 7 8 7 9 8 2 3 4 2 1 2 3 1 2 2 2 2
8 6 5 6 7 6 5 6 6 5 6 6 6 6 4 6 5 4 5 5 4 5 4 4 5 5 5 5 5 5 5 4 4 4 4 4 4 4 4 5 5 3 3 5 6 6 7 8 9 9 9 9 4 3 2 1 2 0 3 1 2 2 2
2 2 3 4 4 5 6 6 6 5 5 5 4 4 5 5 5 5 5 5 5 5 5 6 5 5 5 5 4 4 4 3 4 4 4 4 4 5 5 3 4 4 4 5 5 6 6 7 7 7 7 8 10 6 3 3 3 1 4 3 1 1 3
5 4 5 3 1 1 4 4 5 4 3 3 4 3 5 4 6 6 6 6 6 5 5 6 6 5 5 5 5 5 5 4 5 5 4 5 4 4 4 5 5 5 4 3 3 5 5 5 6 7 7 9 8 10 6 5 5 4 3 3 2 1 2
7 4 5 8 6 1 3 3 3 4 3 3 4 4 5 5 5 5 5 5 5 5 5 5 6 5 5 5 5 5 5 5 4 3 4 5 4 3 3 3 3 4 3 3 4 4 5 6 7 7 7 5 6 9 7 8 6 3 4 3 2 3 2
5 6 5 6 8 9 4 3 6 6 5 4 6 6 5 5 5 4 5 4 4 5 4 5 5 5 5 5 4 5 4 5 5 4 3 4 4 4 3 4 3 3 3 4 3 3 4 6 7 6 6 5 5 2 7 6 5 4 3 5 2 3 5
6 7 7 7 7 5 5 3 5 8 8 7 7 6 6 6 5 5 4 5 4 4 4 4 5 5 5 5 4 4 3 4 4 4 3 2 4 4 4 4 4 4 3 3 4 5 5 4 5 6 6 6 4 3 4 6 6 7 4 5 3 4 6
8 6 6 6 7 8 8 6 6 7 7 7 7 7 7 6 5 5 4 4 4 4 5 4 4 4 4 4 3 4 4 4 5 4 4 3 2 4 4 4 4 4 3 4 3 4 6 5 4 6 5 6 5 4 5 4 5 3 0 1 4 5 4
7 6 8 9 8 7 10 10 8 7 8 7 7 7 7 5 5 5 4 4 4 4 5 5 4 4 5 4 4 3 5 4 4 4 4 4 4 4 4 4 4 4 3 3 3 3 3 4 6 5 4 6 6 6 4 5 3 6 6 1 2 3 5
7 8 9 8 9 9 11 10 8 9 8 6 6 8 7 6 5 5 4 4 4 4 5 5 5 5 5 5 4 3 3 5 5 5 4 4 4 3 4 4 4 3 2 4 2 2 1 3 4 6 5 5 7 7 6 5 6 4 7 4 3 5 5
8 9 9 9 11 9 11 10 8 9 8 7 8 6 7 6 6 5 4 4 4 4 5 4 5 5 5 4 4 5 4 4 6 5 5 4 4 4 4 4 3 2 2 3 2 1 1 1 3 5 5 6 7 8 7 5 7 7 4 7 5 7 7
9 9 9 9 10 9 9 9 7 9 8 7 7 6 5 5 5 5 5 4 4 4 4 4 4 4 4 4 4 4 4 4 5 5 5 5 5 4 4 4 3 3 3 4 3 4 2 3 3 2 4 6 7 7 5 6 5 5 8 9 6 3 4
7 8 9 8 8 7 9 9 8 7 8 8 6 6 6 5 5 5 5 4 4 4 4 4 4 4 4 3 3 3 3 5 5 5 4 4 4 4 4 3 3 3 4 5 3 3 4 4 4 4 3 3 5 6 6 4 5 6 8 8 8 5 3
2 1 6 10 9 7 7 8 8 7 7 8 7 6 6 6 5 6 5 4 4 4 4 3 3 2 3 3 3 3 4 4 5 4 3 3 4 4 5 5 5 5 6 4 4 5 5 4 5 4 3 3 2 6 6 6 6 6 6 6 4 6 7
2 1 3 1 5 7 7 7 6 6 6 7 7 6 7 7 4 4 4 5 5 4 5 5 4 3 2 4 4 4 4 6 6 6 6 5 6 6 7 7 8 7 7 5 5 5 4 4 3 5 4 3 4 5 5 4 4 5 6 5 7 7 6
5 5 2 2 2 1 6 6 6 6 6 6 5 5 5 7 8 8 7 7 7 6 6 5 3 2 2 3 4 5 6 7 8 8 7 7 6 6 6 7 7 7 8 10 11 9 7 6 5 6 4 4 5 5 4 5 5 5 4 5 5 3 4
6 5 4 4 1 5 1 6 6 6 6 6 5 7 8 8 9 9 8 7 7 6 6 4 5 4 1 4 5 6 7 7 7 8 8 8 6 5 5 5 6 11 12 12 11 11 11 11 9 6 4 6 6 4 3 4 4 5 5 5 6 5 6
6 6 6 5 2 2 2 5 4 5 4 6 8 8 10 10 9 8 8 8 9 7 5 4 9 7 4 11 9 8 9 7 6 7 7 7 6 5 3 3 4 6 7 6 6 9 10 10 10 10 10 9 7 6 5 5 1 1 2 1 1 1 2
7 7 7 6 4 2 2 5 6 6 8 9 8 10 11 10 8 8 8 8 9 6 5 7 7 6 8 15 12 9 8 7 6 6 6 6 5 4 4 5 3 3 3 2 4 5 7 7 9 8 7 7 8 10 8 4 3 2 3 1 1 1 3
6 5 5 7 7 3 4 7 8 9 9 9 9 11 10 10 9 7 9 10 8 6 6 8 7 7 10 12 14 11 7 7 7 6 5 5 4 4 3 6 6 3 1 3 3 3 3 3 3 5 4 4 5 6 7 8 7 2 5 6 7 6 6
8 6 5 8 9 6 7 8 8 9 10 10 12 11 10 10 8 8 8 9 8 6 6 8 8 8 10 13 14 11 7 6 6 6 5 3 4 4 3 4 4 4 3 5 6 5 3 3 2 2 2 3 3 2 3 4 1 1 2 3 4 5 6
10 8 6 7 9 8 7 8 7 8 10 10 11 10 9 9 7 7 7 7 8 9 6 9 8 8 8 13 14 12 9 8 5 7 5 3 2 2 4 5 5 5 5 5 5 7 3 3 2 2 2 2 3 4 3 2 3 1 0 1 3 4 3
8 7 8 9 9 10 8 7 11 6 11 10 10 10 9 8 8 8 7 8 9 9 8 11 8 8 5 8 12 9 8 8 5 6 4 4 6 6 6 6 6 6 5 4 7 9 6 3 1 2 1 1 3 3 3 1 1 1 2 2 3 3 4
6 6 5 8 11 8 9 7 10 7 10 11 11 10 9 8 7 7 8 9 10 8 8 11 10 10 10 9 10 8 7 6 6 6 6 6 7 8 8 7 7 5 5 5 8 10 9 4 0 1 0 1 3 4 5 6 6 5 5 6 5 5 6
7 6 7 7 6 8 7 6 6 8 9 9 11 9 10 10 9 9 10 10 8 9 8 11 12 13 13 12 7 7 6 8 8 8 7 6 7 8 10 15 9 6 6 5 8 10 10 6 4 4 3 1 2 3 5 7 5 4 2 3 5 5 5
7 7 7 6 5 7 8 8 6 7 8 9 10 8 8 10 8 8 11 11 12 10 8 9 13 14 14 12 7 5 7 8 8 6 6 6 6 6 6 7 9 8 5 4 7 8 10 7 4 4 4 4 4 3 2 4 5 6 7 7 5 5 5
8 7 6 7 7 7 5 7 8 9 8 8 10 9 9 10 12 10 9 8 6 6 8 8 12 16 14 13 10 6 5 8 8 6 5 5 6 5 5 4 5 7 6 4 4 5 6 6 4 3 3 4 3 3 3 4 1 2 3 3 5 4 4
10 10 8 6 7 7 6 7 8 9 9 9 10 9 11 10 11 10 8 6 7 8 7 9 11 15 15 15 13 10 7 7 5 6 6 6 5 5 5 4 3 6 7 5 4 4 3 4 3 4 3 3 1 3 4 3 5 4 3 3 3 4 5
10 8 9 8 9 8 7 7 7 8 9 10 12 11 10 10 11 9 7 7 7 8 9 12 8 13 15 15 14 12 7 5 3 6 7 6 5 4 4 3 3 5 6 6 5 3 4 4 5 4 3 4 4 3 1 2 3 3 2 3 3 4 5
10 8 8 9 9 9 7 8 8 8 10 10 11 11 10 9 10 9 8 7 6 6 6 8 11 10 12 14 14 14 12 8 9 6 6 6 4 2 2 3 3 6 7 6 6 5 4 4 4 3 3 5 6 5 2 2 3 5 6 6 6 6 6
10 10 10 9 9 10 9 9 9 7 8 9 8 9 7 7 8 9 8 6 5 6 5 5 9 11 10 14 14 14 14 13 10 6 5 4 3 3 4 4 5 8 6 6 6 5 4 5 4 4 4 5 6 5 4 6 6 5 5 6 6 5 5
Wind_Direction
203 185 158 134 119 136 150 165 168 179 173 162 150 145 149 151 149 154 158 153 155 168 165 161 162 167 164 172 175 175 173 164 171 165 168 168 180 216 38 37 52 110 139 87 131 156 135 147 147 75 69 87 136 134 115 163 104 47 164 147 137 128 121
326 74 98 112 126 137 133 145 164 160 155 137 127 147 148 152 158 158 158 155 154 170 177 170 168 161 173 165 165 154 166 169 174 163 150 172 177 183 117 24 81 122 93 81 124 106 140 145 101 149 146 100 72 44 29 131 131 196 188 160 162 127 118
325 313 146 143 142 144 145 147 138 149 154 127 146 191 147 162 157 158 160 165 169 168 171 178 168 164 166 158 161 159 156 157 158 155 164 167 177 170 157 152 136 113 89 90 79 102 49 39 158 159 157 152 147 188 67 159 106 146 136 129 117 120 116
214 236 184 150 141 143 147 135 155 151 150 154 157 189 167 163 157 162 165 168 163 166 164 155 168 163 163 152 150 144 151 152 161 159 151 156 160 163 168 165 166 175 174 167 171 169 151 137 110 131 143 141 151 138 245 148 133 124 108 108 127 119 109
176 201 213 182 159 157 148 148 145 145 158 170 170 171 186 171 162 170 166 156 163 162 166 162 156 149 147 141 143 148 155 152 145 150 154 154 161 167 177 180 182 165 123 144 167 159 153 158 150 149 155 127 98 105 97 81 78 120 123 107 92 96 96
183 179 182 202 178 160 156 150 158 170 172 172 182 181 198 176 166 166 166 162 172 169 158 154 152 143 144 145 146 148 152 157 160 155 156 171 166 167 187 193 175 179 189 156 146 152 136 136 143 141 144 146 132 124 117 123 114 62 87 104 116 124 110
182 185 174 173 178 174 166 169 174 176 177 183 178 192 188 171 177 180 172 172 175 163 160 157 143 144 145 150 152 153 163 169 147 153 160 161 172 174 155 171 194 197 186 160 153 142 147 140 150 152 147 112 107 128 114 72 140 128 138 94 111 117 107
180 175 166 165 162 168 176 176 183 176 177 183 181 191 174 173 170 159 171 165 162 166 162 160 149 144 145 141 154 161 154 152 153 146 139 149 171 163 173 180 188 188 178 169 152 165 160 164 157 162 149 136 109 118 132 89 165 139 155 77 131 103 108
136 144 124 138 154 165 174 180 187 184 184 170 178 167 173 157 149 154 151 151 156 165 170 156 149 144 144 138 144 147 154 150 144 153 151 149 172 180 176 167 157 192 178 169 165 164 173 163 158 156 157 149 146 151 139 144 181 221 149 127 60 102 128
164 187 166 132 114 155 178 188 181 190 154 154 154 152 141 140 144 146 139 138 138 140 137 147 149 148 142 140 149 153 147 147 144 161 149 153 175 168 154 171 176 175 186 173 153 157 158 157 159 159 166 166 167 144 154 165 199 171 195 150 142 178 128
176 151 127 119 105 31 286 183 157 144 160 162 139 130 127 130 134 131 128 125 122 114 126 136 144 145 137 141 153 153 151 139 139 141 159 159 168 151 143 153 154 178 172 165 176 161 158 165 158 167 171 171 166 158 157 166 193 193 167 174 149 153 143
154 149 144 132 137 156 193 221 165 162 146 143 126 125 124 123 124 124 124 124 112 109 112 129 132 136 136 135 145 143 131 129 140 162 179 163 161 146 151 168 186 190 177 175 157 167 175 161 167 164 168 158 186 156 147 135 141 245 165 180 157 135 150
164 161 163 150 144 142 120 263 189 152 155 144 137 139 136 136 133 131 133 125 117 109 113 138 133 130 128 137 146 143 136 128 142 168 185 181 151 160 158 176 198 198 197 171 161 175 186 178 152 163 166 167 166 156 145 145 154 187 201 171 148 144 151
166 145 129 125 137 152 148 190 221 156 142 141 144 139 139 141 140 139 130 127 133 117 128 142 134 131 132 143 150 154 142 154 163 175 156 182 169 157 174 182 199 214 173 158 172 164 166 176 160 169 162 153 167 169 151 132 140 136 64 95 137 148 150
156 140 140 155 158 165 153 172 197 146 146 149 140 138 137 140 139 134 125 139 122 127 138 144 142 138 147 152 158 140 142 150 160 165 155 152 164 170 163 175 203 200 193 148 160 161 147 156 163 156 162 165 175 186 181 133 151 151 176 82 92 99 144
153 150 156 162 164 167 159 171 173 144 142 143 136 139 143 143 146 134 128 134 126 143 133 135 145 144 153 151 143 164 171 151 153 162 168 164 166 158 145 155 188 174 174 138 116 47 178 160 167 177 173 165 179 188 185 171 139 156 165 184 161 150 171
160 160 163 169 166 173 163 163 148 140 141 140 142 144 145 147 143 141 138 135 141 127 112 132 141 144 143 138 159 181 189 160 161 169 170 169 163 156 156 144 172 147 133 97 54 11 9 347 162 189 160 160 170 182 183 176 174 149 157 149 204 178 182
168 165 166 171 164 162 155 144 138 136 140 145 147 143 144 143 144 144 149 151 136 129 129 132 122 126 134 159 152 140 138 141 153 162 163 165 166 152 149 156 161 115 111 94 30 20 16 63 76 90 146 158 161 170 164 172 172 155 150 176 172 205 172
174 166 168 166 149 156 151 147 140 138 145 148 147 145 147 153 155 160 159 154 145 134 127 127 135 159 142 97 84 107 144 138 146 144 147 158 157 149 141 120 110 110 91 99 85 86 80 75 62 57 76 108 143 147 149 150 157 163 165 171 161 153 180
77 329 183 153 166 152 160 145 140 140 147 149 147 147 157 159 167 156 161 147 136 114 101 95 108 121 115 86 102 104 82 99 124 125 111 90 73 70 72 72 62 60 70 77 108 106 98 80 75 60 70 85 97 129 139 149 148 155 162 153 171 184 174
37 344 319 156 164 152 146 142 136 138 142 150 150 149 159 160 142 104 84 75 59 70 76 63 45 23 69 119 111 94 105 95 88 82 78 77 83 84 90 90 86 83 87 79 77 59 45 60 73 69 23 78 97 109 123 130 133 151 156 170 174 182 193
85 59 44 22 8 42 141 136 132 137 143 147 151 133 111 111 103 90 73 72 67 54 60 47 22 9 65 96 107 108 95 97 100 99 93 85 80 88 88 89 90 97 95 90 84 85 87 99 102 85 48 45 44 56 73 86 121 140 162 171 195 167 157
101 100 83 84 62 313 198 133 137 140 146 146 109 92 94 90 94 99 95 76 69 61 49 46 7 347 186 132 102 88 88 100 105 107 105 96 84 77 80 87 91 97 99 98 95 88 84 77 69 86 102 90 83 71 53 80 85 112 130 167 201 178 178
83 82 74 73 75 320 239 126 121 119 108 90 95 96 95 90 85 85 90 91 79 66 53 25 359 15 135 115 100 95 101 96 97 98 99 107 109 103 79 68 71 69 74 84 92 104 103 97 95 90 87 100 115 119 108 75 29 35 92 116 135 107 154
102 102 107 110 84 335 124 105 104 102 100 98 94 93 89 90 89 90 90 84 77 65 61 18 0 10 91 98 105 106 106 105 104 103 105 110 119 112 94 75 62 46 48 84 117 86 71 87 106 112 115 113 115 126 142 148 159 120 115 87 32 271 157
97 88 97 101 83 32 78 92 99 100 98 102 98 93 97 91 88 85 88 84 75 59 60 18 14 32 68 85 97 102 99 111 109 111 108 99 93 77 85 95 85 69 2 13 50 70 107 98 90 112 137 152 146 131 138 149 165 181 165 157 167 209 207
72 62 76 93 98 92 92 90 99 104 103 99 97 96 92 93 92 88 83 85 80 61 58 11 21 42 76 87 87 85 76 71 75 69 62 65 83 124 199 110 105 88 61 42 25 16 29 75 77 72 42 19 18 31 78 108 130 300 232 185 172 191 231
89 81 66 74 79 79 70 83 65 89 97 95 94 93 94 93 85 84 82 83 81 62 32 14 24 39 71 92 96 102 101 88 79 105 102 125 197 97 50 60 74 69 48 34 18 353 359 17 52 55 43 5 2 353 3 18 79 102 238 254 216 237 252
69 81 89 86 78 81 74 78 92 79 90 84 84 85 77 78 80 78 74 74 74 63 39 22 25 45 53 109 103 87 89 105 108 81 80 58 47 43 47 51 75 72 66 53 358 357 355 320 57 88 48 2 10 14 23 335 330 306 286 272 245 245 253
37 55 56 90 97 78 84 65 78 59 82 91 84 77 78 72 67 68 62 57 65 58 46 19 24 43 49 61 89 102 108 101 93 84 55 49 49 46 48 53 57 61 52 40 359 353 356 329 133 100 111 26 33 35 22 3 344 321 324 325 325 312 301
43 37 56 30 70 91 75 55 68 92 87 85 87 88 90 79 65 67 76 71 61 66 48 26 31 43 49 44 76 108 114 103 91 81 75 56 58 55 47 48 51 55 49 34 5 5 5 15 46 15 46 66 37 33 16 357 346 325 304 308 309 308 303
45 44 56 56 48 77 94 95 88 83 90 94 93 94 88 89 85 68 61 58 50 57 54 35 34 46 48 44 54 78 94 101 97 95 95 78 63 63 55 51 50 49 53 22 19 17 15 23 57 31 10 45 51 52 343 337 360 353 351 350 339 350 325
41 47 51 59 58 59 70 91 93 95 92 91 86 84 80 76 74 64 60 58 53 55 61 48 38 44 47 47 47 69 68 99 107 108 92 85 77 57 57 51 49 45 55 57 41 34 29 27 73 55 46 58 41 346 321 319 352 343 322 335 313 310 284
40 36 32 46 62 58 61 81 88 92 94 89 90 84 85 85 81 74 66 58 55 46 45 54 41 42 45 45 41 55 69 75 95 103 98 85 79 72 46 37 33 36 33 38 33 36 45 49 64 88 80 109 57 349 344 320 337 336 314 309 304 313 315
38 39 33 38 54 58 57 71 79 89 96 99 96 92 90 87 86 83 76 64 58 54 42 41 51 41 44 47 46 46 67 57 60 100 84 78 66 59 30 13 11 9 11 23 37 52 62 61 36 52 32 360 329 340 299 276 277 299 319 334 333 350 356
39 34 35 37 54 56 48 63 75 86 92 92 97 99 94 95 95 89 75 59 54 51 47 47 43 50 46 49 48 49 51 56 49 66 82 78 62 32 359 353 344 1 359 2 31 56 71 68 58 41 358 3 357 349 1 35 40 45 40 28 29 23 10
44 39 35 39 49 55 51 54 55 56 75 87 89 88 90 93 91 89 85 68 51 44 39 49 42 41 44 45 47 47 46 45 46 64 68 77 39 25 8 357 334 330 344 2 46 75 57 36 33 360 4 359 2 14 45 49 48 47 48 38 34 24 8